GLOBALSTAR M014 [-]

Last updated on July 6, 2021, 3:36 p.m. UTC

1 25306U 98023A   21187.23778479 -.00000048  00000-0  55171-3 0  9999
2 25306  51.9804 209.0572 0001228 225.8394 214.1554 11.65440219 23039
UTC
Height (km)
Latitude
Longitude
Inclination
Orbital Period
UTC large
Height (km)
Speed (km/s)
/
Latitude / Longitude
Inclination (degrees)
Orbital Period (minutes)
Azimuth
Elevation
Range (km)
Doppler Factor
iOS Compass Heading
iOS Angle